ARIANE 44LP DEB, 33547

Orbit data source: Space-Track

ARIANE 44LP DEB, 33547 is space debris in HEO originally from a launch on Sun, 11 Dec 1988 UTC launched from the French Guiana (FRGUI). Debris objects in space refer to the collection of defunct objects orbiting the Earth. Examples of debris include non-operational satellites, rocket bodies, and fragments generated from explosions, collisions, or faulty payload assembly.

Loading next visibility...
Identifier
33547, 1988-109W
Orbit
HEO
Country
Flag of FRFR
Related business
Manufacturer
Unknown
Mission
Spacecraft
Bus & Motor
Unknown
Mass
Unknown
Launch date (UTC)
1988-12-11 (37 years ago)
Launch vehicle
Unknown
Launch site
French Guiana (FRGUI)
Object type
Payload
Rocket body
Debris
Shape & HBR
Unknown shape, 0.2 m
Radar Cross Section
Medium (>0.1 m² and <1 m²)

Expand to show TLE details & history
Last TLE update: 1 day ago

TLE from 1 day ago
0 ARIANE 44LP DEB
1 33547U 88109W   25287.29973623  .00002604  00000-0  20989-1 0  9994
2 33547   7.1273 316.8176 7072724 257.9614  21.1072  2.39680235218483
Epoch: 2025-10-14T07:11Z
TLE epoch observation values (Epoch: 2025-10-14T07:11:37.210Z)
Latitude
-0.00009°
Longitude
-174.38338°
Altitude
7,392.267 km
Speed
6.402 km/s
True Right ascension
21h 06m 26s
True Declination
0° 00' 00"
Sunlit
Object was in daylight at epoch
Visualization orbit readout
Latitude
Unknown
Longitude
Unknown
Altitude
Unknown
Speed
Unknown
Apparent Right ascension
Unknown
Apparent Declination
Unknown
Sunlit
N/A
Visualization observer readout
Local Sidereal Time
11:58:18
Azimuth
Unknown
Elevation
Unknown
Doppler factor
Unknown
Orbital elements
Apogee altitude
33,897.757 km
Perigee altitude
527.537 km
Semi-major axis
23,590.784 km
Eccentricity
0.70727
Inclination
7.1273°
RAAN
316.8176°
Arg. of periapsis
257.9614°
True anomaly
101.57527°
Mean anomaly
21.1072°
Eccentric anomaly
53.81414°
Mean motion
0.599 °/min
Orbital period
601 mins
BSTAR
0.020989
Loading maneuver chart data...
Computing Atmospheric mass density...
Loading historical data...
Loading historical data...
Loading historical data...
Loading historical data...
Loading historical data...
Loading historical data...
Loading historical data...

Documentation

Showing up to 5 results
|